Weather History for Chicago, IL

Change the Weather History Date:

Sunday, January 5, 2014

  Actual Average Record
Temperature  
Mean Temperature 13 °F 24 °F  
Max Temperature 29 °F 31 °F 56 °F (1890)
Min Temperature -3 °F 17 °F -18 °F (1884)
Degree Days  
Heating Degree Days 52 41  
Month to date heating degree days 257 205  
Since 1 July heating degree days 2823 2616  
Cooling Degree Days 0 0  
Month to date cooling degree days 0 0  
Year to date cooling degree days 0 0  
Moisture  
Dew Point 7 °F    
Average Humidity 71    
Maximum Humidity 88    
Minimum Humidity 53    
Precipitation  
Precipitation 0.59 in 0.06 in 0.80 in (1929)
Month to date precipitation 1.32 0.31  
Year to date precipitation 1.32 0.31  
Snow  
Snow 8.70 in 0.30 in 6.20 in (2005)
Month to date snowfall 19.6 1.6  
Since 1 July snowfall 34.7 11.3  
Snow Depth 9.00 in    
Sea Level Pressure  
Sea Level Pressure 30.00 in    
Wind  
Wind Speed 17 mph (NNW)    
Max Wind Speed 31 mph    
Max Gust Speed 38 mph    
Visibility 2 miles    
Events Snow    
T = Trace of Precipitation, MM = Missing Value Source: NWS Daily Summary

Daily Weather History Graph

Daily Weather History Graph

Search for Another Location

Airport:

Trip Planner

Search our weather history database for the weather conditions in past years. The results will help you decide how hot, cold, wet, or windy it might be!

Date:

Astronomy

Jan. 05, 2014 Rise Set
Actual Time 7:19 AM CST 4:34 PM CST
Civil Twilight 6:48 AM CST 5:06 PM CST
Nautical Twilight 6:13 AM CST 5:41 PM CST
Astronomical Twilight 5:39 AM CST 6:14 PM CST
Moon 9:56 AM CST (1/5) 10:08 PM CST (1/5)
Length of Visible Light 10h 17m
Length of Day
9h 14m
Waxing Crescent, 25% of the Moon is Illuminated
Jan 5
Waxing Crescent
Jan 7
First Quarter
Jan 15
Full
Jan 23
Last Quarter
Jan 30
New

Hourly Weather History & Observations

Time (CST) Temp. Windchill Dew Point Humidity Pressure Visibility Wind Dir Wind Speed Gust Speed Precip Events Conditions
12:10 AM 28.9 °F 20.4 °F 25.0 °F 85% 29.98 in 0.8 mi North 9.2 mph - 0.01 in Snow Light Snow
12:25 AM 28.9 °F 18.2 °F 25.0 °F 85% 29.98 in 0.8 mi North 13.8 mph - 0.03 in Snow Light Snow
12:39 AM 27.0 °F 17.3 °F 23.0 °F 85% 29.98 in 0.8 mi North 10.4 mph - 0.04 in Snow Light Snow
12:51 AM 26.1 °F 14.0 °F 21.9 °F 84% 30.01 in 0.8 mi North 15.0 mph - 0.06 in Snow Light Snow
1:29 AM 24.1 °F 12.0 °F 19.0 °F 81% 30.00 in 0.8 mi North 13.8 mph - 0.04 in Snow Light Snow
1:51 AM 23.0 °F 11.7 °F 19.0 °F 85% 30.03 in 0.8 mi North 11.5 mph - 0.05 in Snow Light Snow
2:23 AM 21.9 °F 9.2 °F 17.1 °F 82% 30.02 in 1.2 mi North 13.8 mph - 0.02 in Snow Light Snow
2:32 AM 21.9 °F 10.4 °F 16.0 °F 78% 30.01 in 1.5 mi North 11.5 mph - 0.02 in Snow Light Snow
2:51 AM 21.0 °F 9.3 °F 16.0 °F 81% 30.04 in 1.5 mi North 11.5 mph - 0.02 in Snow Light Snow
2:59 AM 21.0 °F 9.3 °F 16.0 °F 81% 30.01 in 0.8 mi North 11.5 mph - 0.01 in Snow Light Snow
3:29 AM 21.0 °F 8.1 °F 16.0 °F 81% 30.01 in 0.8 mi North 13.8 mph - 0.03 in Snow Light Snow
3:51 AM 19.9 °F 7.3 °F 15.1 °F 81% 30.04 in 0.8 mi North 12.7 mph - 0.05 in Snow Light Snow
4:23 AM 19.9 °F 4.8 °F 14.0 °F 78% 30.01 in 0.8 mi North 18.4 mph 23.0 mph 0.02 in Snow Light Snow
4:46 AM 19.4 °F 5.0 °F 12.2 °F 74% 30.01 in 0.8 mi North 16.1 mph - 0.03 in Snow Light Snow
4:51 AM 19.0 °F 4.5 °F 12.9 °F 77% 30.04 in 1.5 mi North 16.1 mph - 0.03 in Snow Light Snow
5:07 AM 19.0 °F 4.5 °F 12.9 °F 77% 30.01 in 2.0 mi North 16.1 mph - 0.00 in Snow Light Snow
5:51 AM 18.0 °F 3.6 °F 12.0 °F 78% 30.04 in 2.5 mi North 15.0 mph - 0.01 in Snow Light Snow
6:45 AM 17.6 °F 2.7 °F 10.4 °F 73% 30.01 in 3.0 mi North 16.1 mph - 0.01 in Snow Light Snow
6:51 AM 17.1 °F 1.5 °F 10.9 °F 77% 30.04 in 3.0 mi North 17.3 mph - 0.01 in Snow Light Snow
7:11 AM 17.1 °F 1.5 °F 10.9 °F 77% 30.01 in 1.0 mi North 17.3 mph 25.3 mph 0.01 in Snow Light Snow
7:43 AM 17.1 °F 0.6 °F 10.0 °F 74% 30.01 in 2.0 mi North 19.6 mph 24.2 mph 0.02 in Snow Light Snow
7:51 AM 17.1 °F 2.5 °F 10.0 °F 74% 30.04 in 2.0 mi North 15.0 mph - 0.02 in Snow Light Snow
8:06 AM 17.1 °F 1.0 °F 10.0 °F 74% 30.03 in 2.0 mi North 18.4 mph 24.2 mph 0.00 in Snow Light Snow
8:42 AM 17.1 °F 2.0 °F 10.0 °F 74% 30.02 in 2.0 mi North 16.1 mph - 0.01 in Snow Light Snow
8:51 AM 17.1 °F 1.5 °F 10.0 °F 74% 30.04 in 2.5 mi North 17.3 mph - 0.01 in Snow Light Snow
9:09 AM 16.0 °F -0.4 °F 9.0 °F 74% 30.01 in 1.0 mi North 18.4 mph - 0.01 in Snow Light Snow
9:38 AM 16.0 °F -0.4 °F 10.0 °F 77% 30.01 in 1.0 mi North 18.4 mph 26.5 mph 0.03 in Snow Light Snow
9:51 AM 16.0 °F -1.7 °F 10.0 °F 77% 30.03 in 1.0 mi North 21.9 mph 27.6 mph 0.03 in Snow Light Snow
10:09 AM 16.0 °F -0.9 °F 10.0 °F 77% 30.01 in 1.0 mi North 19.6 mph 27.6 mph 0.01 in Snow Light Snow
10:16 AM 16.0 °F -0.9 °F 10.0 °F 77% 30.01 in 0.8 mi North 19.6 mph - 0.01 in Snow Light Snow
10:38 AM 16.0 °F 0.1 °F 9.0 °F 74% 30.00 in 0.8 mi North 17.3 mph 25.3 mph 0.02 in Snow Light Snow
10:51 AM 16.0 °F -0.4 °F 9.0 °F 74% 30.03 in 0.5 mi North 18.4 mph - 0.03 in Snow Snow
11:12 AM 15.1 °F -2.5 °F 9.0 °F 77% 29.99 in 0.5 mi North 20.7 mph - 0.01 in Snow Snow
11:21 AM 15.1 °F -1.6 °F 9.0 °F 77% 29.98 in 0.5 mi North 18.4 mph 26.5 mph 0.03 in Snow Snow
11:29 AM 15.1 °F -1.1 °F 9.0 °F 77% 29.98 in 0.2 mi North 17.3 mph - 0.05 in Snow Heavy Snow
11:46 AM 15.8 °F -1.5 °F 8.6 °F 73% 29.96 in 0.2 mi North 20.7 mph - 0.07 in Snow Heavy Snow
11:51 AM 15.1 °F -2.0 °F 8.1 °F 74% 29.99 in 0.2 mi North 19.6 mph 26.5 mph 0.08 in Snow Heavy Snow
12:03 PM 15.1 °F -2.0 °F 8.1 °F 74% 29.94 in 0.5 mi North 19.6 mph 29.9 mph 0.01 in Snow Snow
12:51 PM 15.1 °F -2.9 °F 8.1 °F 74% 29.95 in 0.5 mi North 21.9 mph 28.8 mph 0.04 in Snow Snow
1:51 PM 14.0 °F -3.4 °F 7.0 °F 74% 29.95 in 0.8 mi North 19.6 mph 31.1 mph 0.06 in Snow Light Snow
2:51 PM 12.9 °F -4.4 °F 6.1 °F 74% 29.94 in 1.0 mi NNW 18.4 mph 28.8 mph 0.04 in Snow Light Snow
2:59 PM 12.9 °F -4.9 °F 5.0 °F 71% 29.91 in 1.5 mi North 19.6 mph 29.9 mph 0.01 in Snow Light Snow
3:16 PM 12.0 °F -6.9 °F 3.9 °F 70% 29.92 in 4.0 mi North 21.9 mph 31.1 mph 0.01 in Snow Blowing Snow
3:30 PM 12.0 °F -7.3 °F 3.9 °F 70% 29.91 in 1.8 mi NNW 23.0 mph 32.2 mph 0.01 in Snow Light Snow
3:51 PM 10.9 °F -7.9 °F 3.9 °F 73% 29.96 in 1.2 mi NNW 20.7 mph - 0.01 in Snow Light Snow
4:49 PM 10.4 °F -8.6 °F 1.4 °F 67% 29.93 in 1.8 mi NNW 20.7 mph - 0.02 in Snow Light Snow
4:51 PM 10.0 °F -10.4 °F 1.9 °F 70% 29.97 in 1.8 mi NNW 24.2 mph 29.9 mph 0.02 in Snow Light Snow
5:51 PM 7.0 °F -14.5 °F -0.0 °F 73% 29.99 in 1.5 mi NW 24.2 mph 33.4 mph 0.01 in Snow Light Snow
5:59 PM 7.0 °F -14.0 °F -0.0 °F 73% 29.95 in 1.5 mi NNW 23.0 mph - 0.00 in Snow Light Snow
6:19 PM 6.1 °F -16.1 °F -0.9 °F 73% 29.96 in 1.2 mi NNW 25.3 mph 33.4 mph 0.00 in Snow Light Snow
6:36 PM 6.1 °F -15.7 °F -2.9 °F 67% 29.96 in 1.8 mi NW 24.2 mph 35.7 mph 0.00 in Snow Light Snow
7:00 PM 5.0 °F -16.7 °F -4.0 °F 66% 29.98 in 1.8 mi NW 23.0 mph 32.2 mph 0.01 in Snow Light Snow
7:20 PM 5.0 °F -17.1 °F -4.0 °F 66% 29.98 in 1.5 mi NNW 24.2 mph 28.8 mph 0.01 in Snow Light Snow
7:36 PM 3.9 °F -17.6 °F -6.0 °F 64% 29.98 in 2.0 mi NW 21.9 mph 29.9 mph 0.01 in Snow Light Snow
7:51 PM 3.9 °F -17.1 °F -7.1 °F 60% 30.03 in 6.0 mi NW 20.7 mph - 0.01 in Snow Light Snow
8:51 PM 3.0 °F -17.3 °F -9.9 °F 55% 30.04 in 10.0 mi NW 18.4 mph 29.9 mph 0.00 in   Overcast
9:51 PM 1.0 °F -20.4 °F -11.9 °F 55% 30.04 in 10.0 mi NW 19.6 mph 28.8 mph N/A   Overcast
10:51 PM -0.0 °F -22.4 °F -13.0 °F 54% 30.05 in 10.0 mi WNW 20.7 mph 28.8 mph N/A   Mostly Cloudy
11:51 PM -2.0 °F -26.9 °F -15.0 °F 54% 30.05 in 10.0 mi WNW 25.3 mph 34.5 mph N/A   Mostly Cloudy